CAPE
1309 1566 1494 1390 1228 1156 1262 1337 1185 1025 1116 1277 1311 1308 1549 1609 1664 1880 2032 2286 2328 2476 2534 2709 2942 3004 2885 2605 2773 2680 3408 3079 2728 2470 2745 3015 3012 2997 2795 2804 2582 2321
1548 1644 1864 1461 1272 1383 1193 1430 1506 1276 1270 1280 1198 1349 1706 1643 1655 1838 1907 2135 2310 2362 2372 2604 2822 2898 2803 2673 2517 2573 3019 3362 2540 4042 3402 2946 2752 2725 2359 2768 2768 2308
1634 1690 1855 1568 1352 1361 1076 1287 1692 1570 1514 1468 1297 1356 1696 1928 1677 1769 1866 1993 2110 2303 2234 2515 2630 2752 2728 2674 2632 2727 3183 3370 2716 2462 3007 2708 2739 2380 2250 3017 2638 2299
1580 1646 1697 1702 1450 1440 1351 1263 1634 1838 1750 1803 1673 1511 1641 2022 1897 1757 1740 2780 2149 2352 2334 2575 2801 2720 2783 2863 2920 2956 3145 3334 3097 2840 2824 2898 2901 3181 2909 2693 2783 2322
1601 1586 1582 1545 1522 1507 1467 1409 1498 1848 1929 1885 1929 1774 1756 1873 2038 2028 1839 2164 2363 2420 2560 2582 2958 3015 2963 2948 3094 3160 3156 3227 3360 3270 2904 2738 2651 2719 2688 2818 2547 2344
1589 1606 1487 1300 1297 1449 1529 1480 1480 1723 1908 1960 1959 1961 1932 1862 1891 1941 2002 2042 2448 2492 2678 2752 2847 3142 3207 3131 3199 3274 3203 3048 3028 2934 2868 2831 2704 2564 3027 3052 2673 2322
1576 1567 1489 1402 1176 1348 1520 1514 1550 1762 1824 1906 1979 2033 2040 1987 1878 1778 1786 1897 2258 2540 2624 2782 2875 2950 3087 3150 3106 2983 2878 2844 2806 2654 2752 2738 2613 2566 2616 2747 2727 2698
1562 1505 1396 1351 1193 1262 1502 1565 1593 1739 1864 1915 1946 1967 2024 2055 1955 1819 1725 1757 1906 2250 2540 2661 2806 2904 2933 2947 2915 2806 2731 2720 2645 2632 2729 2726 2775 2792 2808 2834 2636 2563
1563 1424 1402 1439 1286 1223 1342 1501 1615 1692 1811 1954 2045 2061 2018 1964 1973 1964 1941 1885 1806 1830 1972 2264 2554 2693 2753 2810 2831 2821 2825 2720 2608 2596 2532 2535 2551 2589 2626 2638 2632 2660
1545 1423 1371 1472 1448 1320 1274 1335 1442 1591 1700 1797 1881 1939 1955 1989 2014 1942 1932 1921 1842 1829 1814 1869 2150 2444 2560 2637 2714 2782 2801 2702 2639 2618 2549 2471 2434 2462 2378 2348 2369 2298
1539 1452 1384 1367 1435 1438 1408 1342 1405 1477 1554 1653 1697 1722 1754 1802 1826 1732 1592 1741 1878 1968 2014 2028 2040 2156 2391 2554 2640 2667 2668 2626 2579 2527 2493 2455 2448 2426 2694 2268 2303 2308
1564 1447 1409 1349 1360 1408 1423 1406 1402 1402 1450 1548 1625 1668 1704 1706 1560 1535 1426 1484 1680 1904 2057 2140 2138 2132 2236 2405 2481 2487 2494 2514 2502 2462 2408 2405 2438 2412 2377 2505 2528 2511
1596 1448 1412 1388 1319 1341 1382 1399 1436 1479 1483 1489 1581 1630 1683 1646 1630 1651 1500 1459 1380 1451 1625 1815 1964 2068 2125 2118 2111 2194 2280 2370 2431 2393 2375 2366 2348 2367 2421 2469 2552 2611
1698 1551 1430 1403 1368 1362 1370 1365 1374 1478 1572 1561 1415 1433 1608 1583 1681 1738 1615 1517 1376 1306 1430 1487 1618 1772 1869 1874 1884 1960 2041 2168 2253 2208 2163 2166 2198 2248 2249 2173 2264 2344
1777 1717 1605 1515 1472 1437 1398 1364 1368 1416 1502 1585 1622 1619 1619 1658 1737 1773 1737 1565 1620 1629 1618 1668 1672 1646 1804 1894 1927 1952 1983 2025 1992 1944 1966 1967 2027 2171 2216 2240 2286 2316
1840 1758 1768 1734 1725 1782 1635 1371 1302 1349 1462 1463 1526 1620 1542 1577 1635 1670 1674 1570 1643 1799 1816 1815 1868 1856 2155 2207 2189 2037 1924 1938 1955 1986 2058 2117 2089 2045 2223 2261 2223 2260
1853 1801 1791 1805 1860 1908 1854 1527 1305 1284 1352 1343 1271 1271 1293 1272 1320 1400 1449 1497 1546 1756 1876 1910 1965 2097 2288 2065 2024 2294 2580 2073 2143 2185 2185 2193 2180 2149 2132 2059 2032 2161
1989 1879 1764 1726 1756 1793 1886 1738 1581 1399 1247 1196 1233 1174 1200 1161 1185 1207 1254 1349 1424 1507 1711 1825 1918 2053 2067 2086 2078 2087 2572 2312 2284 2323 2348 2350 2317 2246 2197 2054 1965 2027
2084 1934 1474 1022 1001 1257 1297 1516 1485 1327 1084 1106 976 1075 1032 933 1162 1211 1222 1236 1266 1382 1524 1653 1738 1784 1809 1862 1950 2036 2109 2136 2090 1959 1983 2037 2080 2092 2088 1961 1848 1760
1649 1453 1160 1015 1060 1082 1411 1164 1271 1151 1089 1008 1138 1051 1201 1183 1233 1291 1313 1344 1349 1403 1473 1561 1635 1690 1717 1744 1797 1873 1957 1978 1942 1690 1654 1740 1823 1889 1947 1905 1700 1446
994 912 819 979 877 983 1109 1321 922 1099 1066 1314 1158 937 1137 1196 1272 1363 1394 1431 1468 1490 1494 1468 1435 1474 1542 1618 1692 1741 1800 1862 1813 1583 1423 1370 1424 1624 1799 1877 1736 1531
982 886 737 786 876 998 1192 1321 1238 1174 1381 1387 1200 992 1069 1031 1090 1167 1167 1291 1404 1446 1438 1368 1306 1284 1341 1469 1600 1690 1748 1740 1632 1464 1264 1139 1191 1346 1452 1529 1586 1530
1442 1158 889 956 1037 1105 1087 1187 1434 1506 1759 1668 1434 1314 1175 1294 1065 901 920 919 1008 1114 1173 1194 1217 1199 1168 1138 1211 1255 1240 1234 1258 1255 1156 1010 968 994 862 848 926 1193
1267 1365 1200 1086 1048 1141 1076 1159 1220 1279 1268 1252 1324 1424 1465 1314 1231 1330 1202 997 917 935 873 876 887 909 919 888 827 705 648 619 677 651 630 715 805 924 863 653 955 2562
797 890 862 800 755 661 670 661 611 723 862 822 826 808 833 844 899 959 1068 1190 1260 1242 1154 1133 1036 1126 1122 1068 972 885 811 710 720 677 633 609 636 776 1210 1213 1268 2993
228 237 230 304 354 359 272 305 368 410 448 464 534 539 580 624 647 660 708 675 604 656 827 1054 1075 959 1059 1109 1067 1021 998 961 915 845 1028 784 660 663 1042 1344 1791 1824
Wind_Speed
7 8 6 6 6 6 5 4 5 4 4 5 4 5 4 5 4 3 2 3 3 3 4 4 4 4 4 4 4 4 5 4 5 4 5 5 5 5 6 6 6 5
8 8 7 7 7 8 7 5 4 4 3 4 4 4 5 5 4 3 3 3 3 3 4 4 4 4 4 4 4 4 4 5 5 6 5 5 4 5 5 5 5 5
9 9 8 7 6 6 5 5 5 4 4 3 5 6 5 6 5 5 4 4 4 4 4 4 4 4 3 4 4 4 4 5 5 5 5 5 5 5 5 6 6 6
8 8 8 7 7 6 6 6 6 5 6 6 5 6 7 7 7 6 5 5 6 5 6 6 4 4 4 3 4 4 5 5 4 5 5 6 6 6 6 6 7 6
9 8 8 7 7 7 7 6 5 5 5 5 6 7 7 8 8 7 6 6 6 6 7 6 5 5 4 4 4 4 5 4 5 5 4 5 5 6 5 6 6 6
12 11 9 8 8 8 7 5 5 5 4 5 4 6 6 7 7 7 7 6 6 6 6 6 6 5 5 4 5 4 4 3 4 5 4 4 4 5 6 6 6 5
12 12 11 10 9 9 8 7 7 7 5 5 8 5 6 7 7 6 7 6 6 5 5 6 6 6 5 6 6 5 4 4 5 5 5 4 5 5 5 5 5 5
14 15 14 13 11 11 9 9 10 10 9 10 8 7 8 7 7 8 8 7 7 6 6 6 6 6 6 7 6 6 5 6 4 5 6 5 6 5 5 5 6 5
17 17 16 15 13 14 12 12 13 13 13 12 10 10 10 9 9 9 9 9 7 7 7 7 7 7 7 7 6 6 6 6 5 6 6 6 6 5 5 7 7 6
18 19 18 17 16 16 15 15 15 15 16 14 12 12 11 11 11 11 11 10 9 8 8 8 8 8 8 7 7 7 7 6 7 7 7 7 6 6 6 7 7 7
19 19 19 19 18 19 17 17 17 17 17 15 15 14 14 14 13 14 13 12 10 10 9 9 9 9 9 8 8 8 8 8 8 8 8 8 8 7 7 7 7 7
20 20 19 19 20 20 18 18 18 18 18 17 16 15 16 15 15 15 14 13 12 12 12 11 11 11 10 9 9 9 9 8 9 9 8 8 8 8 8 9 8 7
21 21 21 21 22 22 22 21 19 19 18 17 17 16 16 16 16 16 16 15 14 14 14 13 13 13 12 11 11 11 11 10 10 10 10 10 9 9 9 9 10 9
22 24 24 24 25 25 23 21 21 20 19 18 19 17 16 17 17 17 16 17 16 16 16 16 15 15 15 14 14 14 14 13 12 12 12 12 11 9 9 10 11 11
24 24 25 24 23 24 23 22 21 21 21 21 20 19 19 18 18 18 18 18 19 19 19 18 17 17 18 18 17 16 16 15 14 14 14 14 13 11 10 10 11 11
27 25 24 24 24 23 23 22 22 23 23 22 21 21 21 22 22 21 20 20 21 21 21 20 20 21 20 17 18 19 17 17 17 17 16 16 15 14 13 13 12 12
30 31 31 26 24 24 24 23 22 23 24 24 23 24 24 24 24 23 22 23 22 23 22 21 22 22 19 18 16 16 20 20 19 18 18 17 16 16 14 14 14 14
34 34 34 34 32 29 30 30 31 32 28 24 22 23 25 26 25 23 23 23 24 23 22 22 22 21 19 19 18 18 20 22 21 20 20 18 17 17 16 16 16 16
38 37 36 37 36 34 29 29 30 33 35 35 33 31 29 27 25 25 23 24 24 23 22 23 23 21 19 20 20 20 20 22 23 22 20 19 18 18 17 17 17 18
36 35 33 34 34 33 31 29 29 31 31 28 28 31 35 32 30 29 28 27 26 25 24 24 23 22 20 20 20 21 21 22 23 22 21 19 19 19 18 18 19 21
37 35 33 32 31 30 29 28 30 35 36 32 28 28 32 32 31 31 29 29 29 29 29 27 26 27 22 20 20 21 23 24 24 23 22 21 20 20 19 20 21 22
35 35 36 35 35 34 32 28 31 35 33 28 29 32 31 30 28 27 27 28 29 30 29 26 26 28 27 25 23 22 22 23 23 23 22 21 20 20 21 22 23 25
37 37 37 39 39 38 36 32 31 32 30 31 35 31 27 27 27 26 27 27 25 25 26 26 26 28 28 26 25 25 24 23 23 23 23 22 21 21 22 24 27 29
32 32 34 35 35 33 32 32 32 33 33 36 35 31 29 29 30 29 31 31 27 25 25 27 27 30 30 29 28 27 25 25 26 26 24 25 24 25 26 26 28 34
27 29 30 31 29 26 25 27 27 28 31 34 35 32 30 32 32 32 31 30 28 28 27 28 33 35 38 37 33 31 30 29 29 29 27 27 28 30 32 32 30 35
28 29 29 29 28 25 25 25 25 24 24 25 26 27 26 27 29 30 30 30 31 32 33 37 37 36 38 38 37 35 33 32 31 31 29 31 34 36 37 38 38 40
Wind_Direction
229 220 213 204 203 204 219 215 197 186 178 185 179 163 151 146 170 176 161 169 162 159 157 153 161 154 145 158 171 179 172 172 168 177 190 201 197 196 197 194 197 202
227 229 220 215 211 207 212 222 225 215 203 202 193 190 179 188 188 206 207 210 209 194 197 189 184 173 168 174 176 171 170 183 163 186 188 190 192 206 202 204 195 199
222 224 227 229 227 223 224 217 224 226 230 222 214 209 207 207 218 217 218 231 235 227 224 219 213 203 197 195 196 184 186 188 174 177 194 184 197 198 198 222 212 214
213 219 224 225 226 231 225 226 216 222 226 232 225 223 224 220 226 234 227 228 236 233 230 227 230 234 232 220 218 201 200 201 197 208 204 203 210 225 209 227 232 223
212 210 212 219 220 223 225 222 225 230 236 239 233 229 234 228 229 231 234 229 236 237 238 234 230 236 244 240 236 222 213 201 203 225 227 217 218 235 229 240 233 231
205 206 209 213 220 231 230 226 224 234 229 233 239 236 233 235 233 233 236 239 240 244 246 247 248 240 243 241 243 237 232 226 216 238 231 229 220 239 242 251 247 234
206 208 207 209 216 227 236 234 231 231 228 225 229 225 233 236 237 240 246 252 257 255 257 261 267 264 253 247 244 237 241 244 239 251 247 232 237 227 247 254 260 258
212 211 210 211 216 224 230 234 236 235 231 228 227 220 235 241 245 246 249 258 262 265 264 267 271 273 268 263 258 249 243 247 250 259 262 255 255 249 248 264 268 272
219 218 217 215 218 222 225 230 234 234 234 234 228 225 229 236 243 250 255 259 260 262 267 267 271 272 269 271 273 273 269 261 261 265 269 269 271 277 280 278 280 287
225 223 224 221 221 221 223 225 231 234 236 236 233 230 232 229 236 246 252 258 260 258 262 265 270 272 273 278 285 284 280 277 271 270 271 271 274 279 284 291 303 300
229 227 226 225 224 223 222 224 226 231 235 237 237 233 232 233 233 238 244 250 257 259 260 263 271 275 277 278 275 275 281 278 273 273 275 279 283 284 285 290 295 302
231 229 228 229 228 226 224 223 225 229 234 235 239 238 237 237 240 238 241 244 246 251 257 261 265 269 273 275 275 272 273 272 273 273 274 275 276 279 282 286 290 297
234 232 231 231 230 229 226 224 224 227 233 236 238 239 241 241 241 241 238 241 242 245 249 255 260 265 268 268 268 268 270 270 269 269 267 268 268 277 283 287 292 294
238 234 232 231 231 231 230 227 226 228 231 235 238 239 240 243 245 245 241 242 242 244 246 248 253 257 260 262 263 265 267 266 267 267 269 269 269 272 277 284 290 294
243 238 234 232 231 233 233 230 229 230 232 234 236 236 236 237 240 243 243 242 241 243 245 246 249 252 254 256 258 259 261 265 267 267 267 268 269 270 271 274 276 283
237 238 241 238 233 231 230 231 230 231 232 232 235 237 236 235 235 237 240 242 242 243 244 246 246 247 251 264 265 261 262 260 261 264 265 268 271 271 270 273 276 278
241 236 231 233 238 234 230 233 232 233 230 229 231 236 237 237 236 237 238 239 243 244 245 245 246 248 258 265 270 272 263 261 262 263 265 269 272 275 277 279 277 278
235 235 235 227 219 229 235 233 230 223 224 227 235 239 239 240 241 241 241 244 245 247 247 247 248 251 261 264 269 272 267 263 263 265 267 271 273 274 274 275 277 278
239 238 236 232 221 211 225 243 244 242 232 222 220 224 234 244 243 243 245 247 251 253 253 252 250 256 263 266 270 273 272 266 262 264 267 270 274 277 276 275 276 276
242 240 239 240 235 223 207 215 241 246 241 230 228 237 234 233 235 240 241 241 239 241 244 246 248 253 265 268 271 273 272 267 261 263 264 267 272 276 275 274 275 278
239 238 236 237 240 235 223 210 223 236 234 227 225 233 245 244 236 228 230 235 236 236 234 232 233 233 247 256 261 265 265 261 259 258 260 261 266 270 273 274 276 281
238 239 238 241 244 242 236 224 225 234 235 231 229 230 227 237 243 245 240 234 232 236 240 240 242 239 235 236 239 242 248 250 255 259 261 264 267 271 273 275 278 282
233 235 237 244 247 245 239 235 236 242 239 237 237 237 236 237 241 242 242 241 240 242 244 246 247 252 250 245 241 239 243 246 250 255 258 263 266 266 272 277 282 285
228 230 234 241 244 243 243 243 242 241 240 240 244 244 239 239 242 244 244 244 243 241 244 247 250 257 260 254 249 247 248 248 250 254 256 261 263 266 271 273 278 291
230 236 237 240 242 239 236 242 244 243 240 243 246 244 240 239 238 239 243 248 252 251 251 252 251 251 251 247 248 251 255 255 255 257 258 261 266 269 269 269 268 277
226 233 233 234 239 240 234 232 231 231 235 240 243 246 247 248 246 242 241 245 248 250 252 252 253 254 254 253 254 254 257 259 261 264 265 268 269 266 266 267 268 267